Weather History for Victoria, BC

Change the Weather History Date:

Friday, December 6, 2013

  Actual Average Record
Temperature  
Mean Temperature 27 °F -  
Max Temperature 31 °F 44 °F 51 °F (2014)
Min Temperature 23 °F 33 °F 23 °F (2013)
Degree Days  
Heating Degree Days 38    
Moisture  
Dew Point 7 °F    
Average Humidity 43    
Maximum Humidity 55    
Minimum Humidity 24    
Precipitation  
Precipitation 0.00 in 0.20 in - ()
Sea Level Pressure  
Sea Level Pressure 30.28 in    
Wind  
Wind Speed 20 mph ()    
Max Wind Speed 28 mph    
Max Gust Speed 37 mph    
Averages and records for this station are not official NWS values.
T = Trace of Precipitation, MM = Missing Value Source: Averaged Metar Reports

Daily Weather History Graph

Daily Weather History Graph

Search for Another Location

Airport:

Trip Planner

Search our weather history database for the weather conditions in past years. The results will help you decide how hot, cold, wet, or windy it might be!

Date:

Astronomy

Dec. 06, 2013 Rise Set
Actual Time 7:51 AM PST 4:18 PM PST
Civil Twilight 7:14 AM PST 4:54 PM PST
Nautical Twilight 6:34 AM PST 5:34 PM PST
Astronomical Twilight 5:56 AM PST 6:12 PM PST
Moon 10:48 AM PST (12/6) 9:11 PM PST (12/6)
Length of Visible Light 9h 39m
Length of Day
8h 26m
Waxing Crescent, 20% of the Moon is Illuminated
Dec 6
Waxing Crescent
Dec 9
First Quarter
Dec 17
Full
Dec 25
Last Quarter
Jan 1
New

Hourly Weather History & Observations

Time (PST) Temp. Windchill Dew Point Humidity Pressure Visibility Wind Dir Wind Speed Gust Speed Precip Events Conditions
12:00 AM 30.2 °F 17.4 °F 14.0 °F 51% 30.24 in 30.0 mi ENE 20.7 mph 29.9 mph N/A   Mostly Cloudy
1:00 AM 28.4 °F 15.1 °F 14.0 °F 55% 30.23 in 30.0 mi ENE 20.7 mph 31.1 mph N/A   Scattered Clouds
2:00 AM 28.4 °F 14.1 °F 14.0 °F 55% 30.25 in 30.0 mi NE 24.2 mph 31.1 mph N/A   Scattered Clouds
3:00 AM 28.4 °F 13.3 °F 10.4 °F 47% 30.25 in 30.0 mi ENE 27.6 mph 33.4 mph N/A   Partly Cloudy
4:00 AM 27 °F - 11 °F 38% 30.25 in 28 mi NE 21.9 mph - -  
4:00 AM 26.6 °F 12.4 °F 12.2 °F 55% 30.25 in 30.0 mi NE 21.9 mph 31.1 mph N/A   Clear
5:00 AM 26.6 °F 11.1 °F 10.4 °F 51% 30.25 in 30.0 mi ENE 26.5 mph 34.5 mph N/A   Partly Cloudy
6:00 AM 26.6 °F 12.4 °F 12.2 °F 55% 30.26 in 30.0 mi ENE 21.9 mph 33.4 mph N/A   Partly Cloudy
7:00 AM 26.6 °F 12.7 °F 12.2 °F 55% 30.26 in 30.0 mi ENE 20.7 mph 32.2 mph N/A   Partly Cloudy
8:00 AM 24.8 °F 9.0 °F 8.6 °F 50% 30.27 in 30.0 mi NE 25.3 mph 34.5 mph N/A   Partly Cloudy
9:00 AM 24.8 °F 9.0 °F 5.0 °F 43% 30.28 in 30.0 mi NE 25.3 mph 36.8 mph N/A   Partly Cloudy
10:00 AM 26 °F - 7 °F 30% 30.30 in 28 mi NE 21.9 mph - -  
10:00 AM 26.6 °F 12.0 °F 6.8 °F 43% 30.30 in 30.0 mi NE 23.0 mph 32.2 mph N/A   Clear
11:00 AM 26.6 °F 11.1 °F 6.8 °F 43% 30.29 in 30.0 mi NE 26.5 mph 34.5 mph N/A   Partly Cloudy
12:00 PM 28.4 °F 15.1 °F 6.8 °F 40% 30.28 in 30.0 mi NE 20.7 mph 32.2 mph N/A   Partly Cloudy
1:00 PM 28.4 °F 15.1 °F 6.8 °F 40% 30.27 in 30.0 mi ENE 20.7 mph 28.8 mph N/A   Partly Cloudy
2:00 PM 28.4 °F 17.0 °F 5.0 °F 37% 30.26 in 30.0 mi NE 15.0 mph 23.0 mph N/A   Clear
3:00 PM 28.4 °F 14.7 °F 3.2 °F 34% 30.25 in 30.0 mi ENE 21.9 mph 27.6 mph N/A   Clear
4:00 PM 27 °F - 5 °F 24% 30.26 in 28 mi ENE 20.7 mph - -   Scattered Clouds
4:00 PM 26.6 °F 12.4 °F 5.0 °F 40% 30.26 in 30.0 mi ENE 21.9 mph 28.8 mph N/A   Partly Cloudy
5:00 PM 26.6 °F 10.8 °F 5.0 °F 40% 30.27 in 30.0 mi ENE 27.6 mph 36.8 mph N/A   Partly Cloudy
6:00 PM 24.8 °F 8.7 °F 5.0 °F 43% 30.28 in 30.0 mi ENE 26.5 mph 35.7 mph N/A   Partly Cloudy
7:00 PM 24.8 °F 8.7 °F 3.2 °F 40% 30.30 in 30.0 mi ENE 26.5 mph 32.2 mph N/A   Partly Cloudy
8:00 PM 24.8 °F 8.4 °F 3.2 °F 40% 30.31 in 30.0 mi NE 27.6 mph - N/A   Clear
9:00 PM 23.0 °F 8.7 °F 5.0 °F 46% 30.33 in 30.0 mi NE 18.4 mph 26.5 mph N/A   Clear
10:00 PM 24 °F - 3 °F 25% 30.35 in 28 mi NE 18.4 mph - -  
10:00 PM 23.0 °F 8.0 °F 3.2 °F 43% 30.35 in 30.0 mi NE 20.7 mph 29.9 mph N/A   Clear
11:00 PM 23.0 °F 7.6 °F 1.4 °F 39% 30.35 in 30.0 mi NE 21.9 mph 27.6 mph N/A   Clear